Regional Weather Roundup
Issued by NWS

Home | Current Version | Previous Version | Graphics & Text | Print | Product List | Glossary On
Versions: 1 2 3 4 5 6 7 8 9 10 11 12 13 14 15 16 17 18 19 20 21 22 23 24 25 26 27 28 29 30 31 32 33 34 35 36 37 38 39 40 41 42 43 44 45 46 47 48 49 50
616
ASUS43 KFSD 051202
RWRSD

WEATHER ROUNDUP FOR SOUTH DAKOTA
NATIONAL WEATHER SERVICE SIOUX FALLS SD
700 AM CDT THU MAY 05 2016

NOTE: "FAIR" INDICATES FEW OR NO CLOUDS BELOW 12,000 FEET WITH NO
SIGNIFICANT WEATHER AND/OR OBSTRUCTIONS TO VISIBILITY.


SDZ001>005-009-010-012>017-051300-
NORTHWEST AND NORTH CENTRAL SOUTH DAKOTA

CITY           SKY/WX    TMP DP  RH WIND       PRES   REMARKS
BUFFALO          N/A     50  41  71 S8        29.88F
FAITH            N/A     50  39  66 S16       29.94S
MOBRIDGE       CLEAR     50  45  83 SE9       29.93F
$$

SDZ012>016-024>037-041>051-057-063-072>074-051300-
SOUTHWEST AND SOUTH CENTRAL SOUTH DAKOTA

CITY           SKY/WX    TMP DP  RH WIND       PRES   REMARKS
RAPID CTY ARPT CLEAR     45  39  79 SE6       29.96S
PIERRE         CLEAR     42  38  85 CALM      29.98S
CUSTER         CLOUDY    45  34  65 NW3       30.08S
ELLSWORTH AFB  CLEAR     51  41  70 W3        29.95S
PHILIP         CLEAR     55  39  54 SE6       29.98S
PINE RIDGE     CLEAR     50  40  68 W7        30.01S
WINNER         FAIR      54  37  52 SW8       30.03S
$$

SDZ004>011-016>023-039-040-051300-
NORTHEAST SOUTH DAKOTA

CITY           SKY/WX    TMP DP  RH WIND       PRES   REMARKS
ABERDEEN       CLEAR     44  38  79 S6        29.97S
WATERTOWN      CLEAR     43  35  73 SE7       30.01R
BROOKINGS      CLEAR     41  35  79 CALM      30.03R
SISSETON         N/A     59  35  40 SW6       29.94S
$$

SDZ017-020-022-023-036>040-048>070-051300-
SOUTHEAST SOUTH DAKOTA

CITY           SKY/WX    TMP DP  RH WIND       PRES   REMARKS
SIOUX FALLS    PTCLDY    41  37  86 CALM      30.04S
HURON          CLEAR     45  40  82 MISG      30.00S
MITCHELL       CLEAR     44  40  85 SE3       30.03R
YANKTON        CLEAR     43  37  81 CALM      30.05R
$$

ABBREVIATIONS USED IN REMARKS
   TC - TEMPERATURE IN CELSIUS
  WCI - WIND CHILL INDEX
   HX - HEAT INDEX
  VSB - VISIBILITY





USA.gov is the U.S. government's official web portal to all federal, state and local government web resources and services.